Stations météo

réclame
Mon MeteoGroup
St-Hubert, Belgique (6476): Température de l'air & dewpoint: 13.06.2019 11:00:00 - 19.06.2019 11:00:00 (CEST)St-Hubert, Belgique (6476): Vitesse du vent & gusts: 13.06.2019 11:00:00 - 19.06.2019 11:00:00 (CEST)St-Hubert, Belgique (6476): Direction du vent: 13.06.2019 11:00:00 - 19.06.2019 11:00:00 (CEST)St-Hubert, Belgique (6476): reduced air pressure: 13.06.2019 11:00:00 - 19.06.2019 11:00:00 (CEST)St-Hubert, Belgique (6476): visibility: 13.06.2019 11:00:00 - 19.06.2019 11:00:00 (CEST)
Date & Time tt [°C] td [°C] ff [km/h] ff [knt] fx [km/h] fx [knt] dd ppp [hPa] vv [km]
19.06.2019 11:00:00 20,7 14,9 11 6 - - SSW 1008,9 35
19.06.2019 10:00:00 19,3 14,2 11 6 29 16 S 1009,0 30
19.06.2019 09:00:00 18,8 14,2 11 6 32 18 S 1008,0 30
19.06.2019 08:00:00 18,9 13,2 14 8 - - S 1007,9 35
19.06.2019 07:00:00 18,3 12,7 14 8 25 14 SE 1007,6 35
19.06.2019 06:00:00 17,7 12,9 11 6 22 12 SE 1008,7 45
19.06.2019 05:00:00 17,5 12,9 11 6 - - SSE 1009,3 45
19.06.2019 04:00:00 17,9 13,0 14 8 22 12 SE 1009,6 45
19.06.2019 03:00:00 17,6 12,6 11 6 18 10 SE 1010,3 45
19.06.2019 02:00:00 17,5 12,9 11 6 - - SSE 1010,6 45
19.06.2019 01:00:00 16,7 12,3 7 4 14 8 SSE 1011,4 45
19.06.2019 00:00:00 16,9 12,1 7 4 14 8 SSE 1011,8 45
18.06.2019 23:00:00 17,6 12,0 7 4 - - SE 1012,1 45
18.06.2019 22:00:00 18,1 11,9 4 2 11 6 SSE 1012,3 45
18.06.2019 21:00:00 20,3 13,2 4 2 14 8 S 1011,8 45
18.06.2019 20:00:00 21,4 12,4 7 4 - - S 1011,6 45
18.06.2019 19:00:00 22,3 13,1 7 4 18 10 S 1011,6 40
18.06.2019 18:00:00 22,5 11,0 7 4 18 10 SSE 1011,9 35
18.06.2019 17:00:00 22,7 13,8 11 6 - - S 1012,4 35
18.06.2019 16:00:00 22,7 13,2 7 4 14 8 SSW 1012,7 40
18.06.2019 15:00:00 23,0 13,4 7 4 14 8 - 1013,1 40
18.06.2019 14:00:00 22,4 10,8 4 2 - - S 1013,3 40
18.06.2019 13:00:00 21,9 12,5 4 2 18 10 - 1013,8 40
18.06.2019 12:00:00 22,2 12,2 7 4 22 12 ESE 1013,7 35
18.06.2019 11:00:00 21,3 9,5 7 4 - - - 1014,3 35
18.06.2019 10:00:00 20,9 10,6 7 4 11 6 NNE 1014,7 40
18.06.2019 09:00:00 19,1 12,3 4 2 11 6 E 1015,1 40
18.06.2019 08:00:00 19,0 11,9 7 4 - - ESE 1015,3 45
18.06.2019 07:00:00 17,8 11,0 7 4 11 6 ESE 1015,5 45
18.06.2019 06:00:00 14,8 9,8 7 4 14 8 ESE 1016,1 45
18.06.2019 05:00:00 15,2 9,3 11 6 - - ESE 1016,3 45
18.06.2019 04:00:00 15,5 9,8 11 6 14 8 ESE 1016,5 45
18.06.2019 03:00:00 16,1 9,9 11 6 14 8 ESE 1016,9 45
18.06.2019 02:00:00 16,0 9,4 7 4 - - ESE 1017,3 45
18.06.2019 01:00:00 16,6 9,5 11 6 11 6 ESE 1017,4 45
18.06.2019 00:00:00 16,4 10,2 7 4 7 4 SE 1017,6 45
17.06.2019 23:00:00 16,1 10,0 7 4 - - SE 1017,5 45
17.06.2019 22:00:00 16,3 11,2 7 4 7 4 ESE 1017,5 45
17.06.2019 21:00:00 19,9 11,1 7 4 14 8 SE 1016,9 45
17.06.2019 20:00:00 21,7 10,0 7 4 - - SSE 1016,5 40
17.06.2019 19:00:00 21,2 8,9 4 2 22 12 - 1017,1 40
17.06.2019 18:00:00 21,9 9,7 7 4 18 10 ESE 1016,9 35
17.06.2019 17:00:00 20,9 9,0 11 6 - - SE 1017,6 35
17.06.2019 16:00:00 22,3 8,6 4 2 25 14 - 1017,6 40
17.06.2019 15:00:00 21,6 9,0 7 4 22 12 - 1018,1 35
17.06.2019 14:00:00 20,9 9,2 7 4 - - - 1018,7 40
17.06.2019 13:00:00 19,8 10,0 7 4 18 10 S 1019,4 35
17.06.2019 12:00:00 18,7 9,5 4 2 18 10 - 1020,0 40
17.06.2019 11:00:00 18,7 9,2 11 6 - - S 1020,1 35
17.06.2019 10:00:00 17,3 10,9 14 8 25 14 SE 1020,6 35
17.06.2019 09:00:00 16,7 10,6 11 6 22 12 SE 1020,9 35
17.06.2019 08:00:00 15,3 9,7 11 6 - - ESE 1021,0 35
17.06.2019 07:00:00 14,1 9,4 11 6 18 10 ESE 1021,2 45
17.06.2019 06:00:00 12,7 9,3 14 8 22 12 ESE 1021,8 45
17.06.2019 05:00:00 10,9 9,2 11 6 - - E 1022,3 45
17.06.2019 04:00:00 11,3 9,0 7 4 11 6 E 1022,3 45
17.06.2019 03:00:00 10,1 9,0 4 2 7 4 SE 1023,0 45
17.06.2019 02:00:00 11,5 9,6 4 2 - - ESE 1022,7 45
17.06.2019 01:00:00 11,4 9,1 4 2 4 2 ESE 1022,8 45
17.06.2019 00:00:00 12,1 9,5 0 0 4 2 N 1022,6 45
16.06.2019 23:00:00 12,6 8,8 4 2 - - S 1022,6 45
16.06.2019 22:00:00 13,3 9,9 4 2 11 6 S 1022,2 45
16.06.2019 21:00:00 16,0 10,5 7 4 14 8 WSW 1021,4 45
16.06.2019 20:00:00 16,7 9,9 4 2 - - S 1021,2 45
16.06.2019 19:00:00 17,6 10,4 7 4 18 10 SW 1021,0 30
16.06.2019 18:00:00 16,6 9,4 11 6 22 12 WSW 1021,2 40
16.06.2019 17:00:00 17,2 9,7 11 6 - - WSW 1021,1 45
16.06.2019 16:00:00 17,2 9,9 11 6 22 12 WSW 1021,2 30
16.06.2019 15:00:00 16,7 10,0 11 6 29 16 WSW 1021,3 35
16.06.2019 14:00:00 15,9 9,9 11 6 - - SW 1021,3 35
16.06.2019 13:00:00 15,6 9,1 14 8 32 18 SW 1021,5 40
16.06.2019 12:00:00 14,6 9,7 14 8 29 16 SSW 1021,4 35
16.06.2019 11:00:00 13,9 9,6 11 6 - - SW 1021,4 40
16.06.2019 10:00:00 13,1 10,0 11 6 25 14 SSW 1021,2 30
16.06.2019 09:00:00 12,2 9,4 14 8 29 16 SW 1021,0 35
16.06.2019 08:00:00 12,3 9,6 11 6 - - SW 1020,7 45
16.06.2019 07:00:00 11,4 9,2 7 4 14 8 SW 1020,6 45
16.06.2019 06:00:00 9,9 7,8 7 4 11 6 SSW 1020,8 45
16.06.2019 05:00:00 11,3 8,4 4 2 - - SSW 1020,1 45
16.06.2019 04:00:00 11,4 8,8 7 4 7 4 SSW 1020,0 45
16.06.2019 03:00:00 11,5 8,6 4 2 11 6 SW 1020,0 45
16.06.2019 02:00:00 10,2 7,7 7 4 - - SW 1020,2 45
16.06.2019 01:00:00 11,1 8,3 7 4 11 6 SSW 1019,9 45
16.06.2019 00:00:00 11,4 8,6 7 4 11 6 SSW 1019,0 45
15.06.2019 23:00:00 12,4 8,5 7 4 - - SW 1018,1 45
15.06.2019 22:00:00 13,2 9,1 7 4 18 10 SW 1017,4 45
15.06.2019 21:00:00 15,6 9,6 11 6 22 12 SW 1016,8 40
15.06.2019 20:00:00 16,0 9,4 11 6 - - SW 1016,3 40
15.06.2019 19:00:00 17,3 10,2 14 8 29 16 SW 1015,7 30
15.06.2019 18:00:00 18,1 10,7 14 8 36 19 SW 1015,6 40
15.06.2019 17:00:00 17,7 9,6 18 10 - - SW 1015,8 30
15.06.2019 16:00:00 18,3 10,3 14 8 32 18 SW 1015,6 40
15.06.2019 15:00:00 18,4 10,7 18 10 32 18 SW 1015,3 35
15.06.2019 14:00:00 17,8 10,2 18 10 - - SW 1015,6 35
15.06.2019 13:00:00 17,3 10,5 14 8 36 19 W 1015,1 35
15.06.2019 12:00:00 16,7 11,8 18 10 36 19 SW 1014,5 30
15.06.2019 11:00:00 14,8 12,9 14 8 - - WSW 1014,4 30
15.06.2019 10:00:00 13,7 12,6 14 8 25 14 SW 1014,1 30
15.06.2019 09:00:00 13,4 12,5 14 8 22 12 SW 1013,5 11
15.06.2019 08:00:00 13,0 12,3 11 6 - - WSW 1012,5 -
15.06.2019 07:00:00 12,2 10,5 18 10 29 16 WSW 1012,4 3,2
15.06.2019 06:00:00 13,3 12,6 7 4 22 12 S 1011,6 6
15.06.2019 05:00:00 13,1 12,3 7 4 - - SE 1011,3 6
15.06.2019 04:00:00 13,1 12,2 7 4 18 10 SSE 1011,5 6
15.06.2019 03:00:00 13,6 12,1 11 6 18 10 E 1011,2 21
15.06.2019 02:00:00 13,7 12,9 4 2 - - SW 1011,8 2,5
15.06.2019 01:00:00 13,9 13,1 7 4 11 6 NNE 1011,4 1,5
15.06.2019 00:00:00 14,1 13,1 4 2 14 8 SW 1012,7 11
14.06.2019 23:00:00 15,0 13,2 11 6 - - SSE 1013,8 11
14.06.2019 22:00:00 15,6 13,1 4 2 14 8 S 1012,6 15
14.06.2019 21:00:00 17,5 12,1 11 6 22 12 SE 1012,2 40
14.06.2019 20:00:00 18,8 11,5 7 4 - - SE 1011,9 45
14.06.2019 19:00:00 19,9 10,9 11 6 18 10 SE 1011,9 35
14.06.2019 18:00:00 21,2 10,1 11 6 22 12 S 1011,9 30
14.06.2019 17:00:00 21,0 10,1 7 4 - - SE 1012,5 40
14.06.2019 16:00:00 20,7 9,7 11 6 25 14 SSW 1013,0 35
14.06.2019 15:00:00 20,6 9,6 14 8 29 16 SW 1013,6 35
14.06.2019 14:00:00 20,2 8,3 14 8 - - S 1014,1 40
14.06.2019 13:00:00 19,5 9,2 11 6 29 16 S 1014,4 30
14.06.2019 12:00:00 18,7 8,6 7 4 22 12 - 1014,6 40
14.06.2019 11:00:00 17,5 9,8 7 4 - - - 1014,2 40
14.06.2019 10:00:00 15,0 8,2 7 4 14 8 SSE 1014,8 40
14.06.2019 09:00:00 13,6 8,6 7 4 14 8 WSW 1016,0 30
14.06.2019 08:00:00 12,3 9,0 4 2 - - SSW 1014,7 45
14.06.2019 07:00:00 11,9 7,9 7 4 18 10 SSE 1014,2 40
14.06.2019 06:00:00 11,4 7,7 11 6 18 10 SE 1013,9 45
14.06.2019 05:00:00 9,7 7,2 11 6 - - ESE 1013,8 45
14.06.2019 04:00:00 10,2 6,9 7 4 14 8 ESE 1013,8 50
14.06.2019 03:00:00 10,8 6,7 11 6 18 10 ESE 1014,1 45
14.06.2019 02:00:00 10,4 6,9 7 4 - - SE 1014,9 45
14.06.2019 01:00:00 10,2 7,7 7 4 14 8 SSE 1015,3 45
14.06.2019 00:00:00 11,5 8,4 7 4 18 10 SSE 1014,9 45
13.06.2019 23:00:00 11,9 8,7 11 6 - - SE 1014,5 45
13.06.2019 22:00:00 12,5 9,2 11 6 22 12 S 1014,0 35
13.06.2019 21:00:00 13,8 7,6 11 6 32 18 SSW 1013,1 45
13.06.2019 20:00:00 14,4 7,3 14 8 - - SSW 1012,9 45
13.06.2019 19:00:00 15,3 7,8 18 10 47 25 SSW 1012,4 35
13.06.2019 18:00:00 11,3 8,7 14 8 50 27 WSW 1014,2 -
13.06.2019 17:00:00 15,1 7,1 22 12 - - SSW 1012,6 40
13.06.2019 16:00:00 14,8 7,2 25 14 43 23 SSW 1012,9 40
13.06.2019 15:00:00 14,6 6,7 22 12 40 21 SSW 1012,9 45
13.06.2019 14:00:00 14,0 6,9 22 12 - - SSW 1012,9 35
13.06.2019 13:00:00 13,9 7,5 22 12 40 21 SSW 1013,2 35
13.06.2019 12:00:00 12,3 6,9 18 10 40 21 SSW 1013,5 35
13.06.2019 11:00:00 12,1 7,5 22 12 - - SSW 1013,6 40

tt = Température de l'air
td = dewpoint
ff = Vitesse du vent
fx = gusts
dd = Direction du vent
ppp = reduced air pressure
vv = visibility

stations d'obs. à proximité